| time (UTC) | temp F | wind direction | speed MPH | gust MPH | rain 1hr in | rain 24hr in | rain mn in | humidity % | barometer mb |
| 20260906001542 | 63 | 177 | 0.0 | 3.0 | 0.00 | 0.00 | 0.00 | 77 | 1016.5 |
| 20260905233124 | 65 | 337 | 0.0 | 2.0 | 0.00 | 0.00 | 0.00 | 68 | 1016.1 |
| 20260905230041 | 67 | 337 | 0.0 | 5.0 | 0.00 | 0.00 | 0.00 | 59 | 1016.2 |
| 20260905224618 | 68 | 326 | 3.0 | 6.0 | 0.00 | 0.00 | 0.00 | 58 | 1016.0 |
| 20260905220037 | 69 | 75 | 0.0 | 2.0 | 0.00 | 0.00 | 0.00 | 62 | 1016.1 |
| 20260905213044 | 68 | 202 | 0.0 | 2.0 | 0.00 | 0.00 | 0.00 | 63 | 1016.4 |
| 20260905211541 | 68 | 186 | 0.0 | 3.0 | 0.00 | 0.00 | 0.00 | 60 | 1016.4 |
| 20260905210152 | 69 | 48 | 0.0 | 2.0 | 0.00 | 0.00 | 0.00 | 58 | 1016.6 |
| 20260905204543 | 68 | 34 | 0.0 | 2.0 | 0.00 | 0.00 | 0.00 | 57 | 1016.6 |
| 20260905203152 | 69 | 44 | 0.0 | 4.0 | 0.00 | 0.00 | 0.00 | 57 | 1016.6 |
| 20260905201543 | 69 | 334 | 1.0 | 6.0 | 0.00 | 0.00 | 0.00 | 56 | 1016.7 |
| 20260905194541 | 69 | 326 | 1.0 | 6.0 | 0.00 | 0.00 | 0.00 | 61 | 1017.2 |
| 20260905190042 | 67 | 324 | 1.0 | 5.0 | 0.00 | 0.00 | 0.00 | 68 | 1017.6 |
| 20260905183043 | 63 | 298 | 1.0 | 5.0 | 0.00 | 0.00 | 0.00 | 79 | 1018.1 |
| 20260905181543 | 60 | 189 | 0.0 | 4.0 | 0.00 | 0.00 | 0.00 | 87 | 1018.4 |
| 20260905180041 | 58 | 201 | 0.0 | 2.0 | 0.00 | 0.00 | 0.00 | 91 | 1018.5 |
| 20260905174618 | 57 | 206 | 0.0 | 1.0 | 0.00 | 0.00 | 0.00 | 92 | 1018.5 |
| 20260905173042 | 57 | 225 | 0.0 | 1.0 | 0.00 | 0.00 | 0.00 | 93 | 1018.5 |
| 20260905171539 | 56 | 225 | 0.0 | 1.0 | 0.00 | 0.00 | 0.00 | 94 | 1018.5 |
| 20260905170042 | 56 | 225 | 0.0 | 1.0 | 0.00 | 0.00 | 0.00 | 95 | 1018.5 |
| 20260905164541 | 56 | 160 | 0.0 | 2.0 | 0.00 | 0.00 | 0.00 | 96 | 1018.5 |
| 20260905163042 | 53 | 143 | 0.0 | 2.0 | 0.00 | 0.00 | 0.00 | 97 | 1018.4 |
| 20260905154540 | 53 | 181 | 0.0 | 2.0 | 0.00 | 0.00 | 0.00 | 97 | 1018.4 |
| 20260905153202 | 52 | 247 | 0.0 | 0.0 | 0.00 | 0.00 | 0.00 | 97 | 1018.5 |
| 20260905151540 | 52 | 247 | 0.0 | 0.0 | 0.00 | 0.00 | 0.00 | 97 | 1018.4 |
| 20260905150041 | 52 | 247 | 0.0 | 0.0 | 0.00 | 0.00 | 0.00 | 97 | 1018.4 |
| 20260905144546 | 51 | 247 | 0.0 | 0.0 | 0.00 | 0.00 | 0.00 | 97 | 1018.2 |
| 20260905134540 | 50 | 247 | 0.0 | 0.0 | 0.00 | 0.00 | 0.00 | 97 | 1017.8 |
| 20260905130044 | 52 | 276 | 0.0 | 1.0 | 0.00 | 0.00 | 0.00 | 97 | 1017.6 |
| 20260905124542 | 52 | 337 | 0.0 | 0.0 | 0.00 | 0.00 | 0.00 | 97 | 1017.6 |
| 20260905123043 | 52 | 337 | 0.0 | 0.0 | 0.00 | 0.00 | 0.00 | 97 | 1017.7 |
| 20260905114543 | 51 | 337 | 0.0 | 0.0 | 0.00 | 0.00 | 0.00 | 96 | 1017.3 |
| 20260905110037 | 51 | 337 | 0.0 | 0.0 | 0.00 | 0.00 | 0.00 | 96 | 1017.3 |
| 20260905103045 | 52 | 337 | 0.0 | 0.0 | 0.00 | 0.02 | 0.00 | 95 | 1017.3 |
| 20260905100152 | 52 | 337 | 0.0 | 0.0 | 0.00 | 0.02 | 0.00 | 95 | 1017.3 |
| 20260905094539 | 52 | 337 | 0.0 | 0.0 | 0.00 | 0.02 | 0.00 | 95 | 1017.4 |
| 20260905093042 | 53 | 337 | 0.0 | 0.0 | 0.00 | 0.02 | 0.00 | 95 | 1017.4 |
| 20260905091541 | 53 | 337 | 0.0 | 0.0 | 0.00 | 0.02 | 0.00 | 95 | 1017.2 |
| 20260905090042 | 53 | 337 | 0.0 | 0.0 | 0.00 | 0.02 | 0.00 | 95 | 1017.2 |
| 20260905083041 | 53 | 337 | 0.0 | 0.0 | 0.00 | 0.02 | 0.00 | 94 | 1017.2 |
| 20260905081539 | 53 | 337 | 0.0 | 0.0 | 0.00 | 0.02 | 0.00 | 94 | 1017.0 |
| 20260905080042 | 53 | 337 | 0.0 | 0.0 | 0.00 | 0.02 | 0.00 | 94 | 1016.9 |
| 20260905074543 | 53 | 337 | 0.0 | 0.0 | 0.00 | 0.02 | 0.00 | 94 | 1016.8 |
| 20260905073109 | 54 | 337 | 0.0 | 0.0 | 0.00 | 0.02 | 0.00 | 94 | 1016.7 |
| 20260905071532 | 54 | 337 | 0.0 | 0.0 | 0.00 | 0.02 | 0.00 | 94 | 1016.5 |
| 20260905063035 | 54 | 337 | 0.0 | 0.0 | 0.00 | 0.02 | 0.02 | 93 | 1016.3 |
| 20260905061532 | 54 | 337 | 0.0 | 2.0 | 0.00 | 0.02 | 0.02 | 93 | 1016.3 |
| 20260905060032 | 54 | 337 | 0.0 | 0.0 | 0.00 | 0.02 | 0.02 | 93 | 1016.3 |
| 20260905054535 | 54 | 337 | 0.0 | 0.0 | 0.00 | 0.02 | 0.02 | 92 | 1016.1 |
| 20260905053036 | 54 | 337 | 0.0 | 0.0 | 0.00 | 0.02 | 0.02 | 92 | 1016.0 |
| 20260905051531 | 54 | 337 | 0.0 | 0.0 | 0.00 | 0.02 | 0.02 | 92 | 1016.1 |
| 20260905050030 | 54 | 337 | 0.0 | 0.0 | 0.00 | 0.02 | 0.02 | 91 | 1016.0 |
| 20260905044642 | 53 | 337 | 0.0 | 0.0 | 0.00 | 0.02 | 0.02 | 90 | 1016.0 |
| 20260905043030 | 53 | 337 | 0.0 | 0.0 | 0.00 | 0.02 | 0.02 | 89 | 1015.8 |
| 20260905041536 | 53 | 337 | 0.0 | 0.0 | 0.00 | 0.02 | 0.02 | 88 | 1015.8 |
| 20260905040108 | 54 | 337 | 0.0 | 0.0 | 0.00 | 0.02 | 0.02 | 87 | 1015.7 |
| 20260905034537 | 54 | 337 | 0.0 | 0.0 | 0.00 | 0.02 | 0.02 | 85 | 1015.6 |
| 20260905033226 | 0 | 0 | 0.0 | 0.0 | 0.00 | 0.02 | 0.02 | 100 | |
| 20260905030108 | 57 | 337 | 0.0 | 0.0 | 0.00 | 0.02 | 0.02 | 81 | 1015.2 |
| 20260905024536 | 57 | 337 | 0.0 | 0.0 | 0.00 | 0.02 | 0.02 | 80 | 1015.0 |
| 20260905021537 | 58 | 337 | 0.0 | 0.0 | 0.00 | 0.02 | 0.02 | 75 | 1014.9 |
| 20260905020033 | 62 | 340 | 0.0 | 3.0 | 0.00 | 0.02 | 0.02 | 69 | 1014.7 |
| 20260905011606 | 63 | 302 | 0.0 | 5.0 | 0.00 | 0.02 | 0.02 | 67 | 1014.3 |
| 20260905010030 | 64 | 234 | 1.0 | 5.0 | 0.00 | 0.02 | 0.02 | 68 | 1014.4 |
| 20260905004611 | 64 | 265 | 0.0 | 3.0 | 0.00 | 0.02 | 0.02 | 68 | 1014.4 |
| 20260905003038 | 63 | 314 | 1.0 | 7.0 | 0.00 | 0.02 | 0.02 | 70 | 1014.2 |